Redmond, OR

5:21 PM PDT on June 24, 2017 (GMT -0700)
Roberts Field Airport

Weather History for KRDM - October, 2012

Change the Weather History Date:

Monday, October 22, 2012

  Actual Average Record
Temperature  
Mean Temperature 40 °F 45 °F  
Max Temperature 47 °F 61 °F 85 °F (1999)
Min Temperature 32 °F 30 °F 16 °F (1980)
Degree Days  
Heating Degree Days 25 20  
Month to date heating degree days 379 356  
Since 1 July heating degree days 645 755  
Cooling Degree Days 0 0  
Month to date cooling degree days 0 0  
Year to date cooling degree days 206 222  
Moisture  
Dew Point 32 °F    
Average Humidity 71    
Maximum Humidity 100    
Minimum Humidity 42    
Precipitation  
Precipitation 0.11 in 0.03 in 0.46 in (1973)
Month to date precipitation 1.07 0.41  
Year to date precipitation 8.77 6.55  
Sea Level Pressure  
Sea Level Pressure 29.61 in    
Wind  
Wind Speed 4 mph (West)    
Max Wind Speed 21 mph    
Max Gust Speed 30 mph    
Visibility 10 miles    
Events Rain    
T = Trace of Precipitation, MM = Missing Value Source: NWS Daily Summary

Daily Weather History Graph

Daily Weather History Graph

Search for Another Location

Airport or City:

Trip Planner

Search our weather history database for the weather conditions in past years. The results will help you decide how hot, cold, wet, or windy it might be!

Date:

Astronomy

Oct. 22, 2012 Rise Set
Actual Time 7:29 AM PDT 6:08 PM PDT
Civil Twilight 6:59 AM PDT 6:37 PM PDT
Nautical Twilight 6:25 AM PDT 7:11 PM PDT
Astronomical Twilight 5:52 AM PDT 7:44 PM PDT
Moon 2:33 PM PDT (10/22) 12:06 AM PDT (10/22)
Length of Visible Light 11h 38m
Length of Day
10h 38m
First Quarter, 57% of the Moon is Illuminated
Oct 22
First Quarter
Oct 29
Full
Nov 6
Last Quarter
Nov 13
New
Nov 20
First Quarter

Hourly Weather History & Observations

Time (PDT) Temp. Windchill Dew Point Humidity Pressure Visibility Wind Dir Wind Speed Gust Speed Precip Events Conditions
12:56 AM 36.0 °F - 33.1 °F 89% 29.72 in 10.0 mi Calm Calm - 0.00 in Rain Light Rain
1:56 AM 36.0 °F 33.3 °F 34.0 °F 93% 29.69 in 10.0 mi East 3.5 mph - 0.00 in Rain Light Rain
2:56 AM 36.0 °F 33.3 °F 34.0 °F 93% 29.65 in 10.0 mi NE 3.5 mph - 0.01 in   Overcast
4:56 AM 36.0 °F 32.1 °F 34.0 °F 93% 29.60 in 10.0 mi NNW 4.6 mph - 0.00 in Rain Light Rain
5:41 AM 35.6 °F 31.7 °F 35.6 °F 100% 29.57 in 9.0 mi West 4.6 mph - 0.00 in Rain Light Rain
7:56 AM 36.0 °F - 34.0 °F 93% 29.56 in 10.0 mi Calm Calm - 0.03 in Rain Light Rain
8:56 AM 36.0 °F 33.3 °F 34.0 °F 93% 29.55 in 10.0 mi SW 3.5 mph - 0.01 in Rain Light Rain
9:56 AM 35.1 °F 32.2 °F 33.1 °F 92% 29.56 in 10.0 mi South 3.5 mph - 0.04 in Rain Light Rain
10:56 AM 37.0 °F 34.5 °F 35.1 °F 93% 29.57 in 10.0 mi WSW 3.5 mph - 0.00 in   Overcast
11:03 AM 37.4 °F - 35.6 °F 93% 29.53 in 10.0 mi Calm Calm - N/A   Mostly Cloudy
11:56 AM 39.9 °F 37.8 °F 36.0 °F 86% 29.55 in 10.0 mi ENE 3.5 mph - N/A   Mostly Cloudy
12:54 PM 42.8 °F 40.1 °F 35.6 °F 76% 29.55 in 10.0 mi North 4.6 mph - N/A   Mostly Cloudy
12:56 PM 43.0 °F 39.5 °F 35.1 °F 74% 29.56 in 10.0 mi North 5.8 mph - N/A   Mostly Cloudy
12:58 PM 42.8 °F 39.3 °F 35.6 °F 76% 29.54 in 10.0 mi NNE 5.8 mph - N/A   Mostly Cloudy
1:56 PM 43.0 °F - 33.1 °F 68% 29.58 in 10.0 mi Calm Calm - N/A   Mostly Cloudy
2:56 PM 45.0 °F 42.6 °F 30.9 °F 58% 29.59 in 10.0 mi SW 4.6 mph - 0.00 in   Mostly Cloudy
3:03 PM 44.6 °F 40.7 °F 33.8 °F 66% 29.58 in 10.0 mi WNW 6.9 mph 17.3 mph N/A   Mostly Cloudy
4:56 PM 44.1 °F 39.5 °F 30.9 °F 60% 29.63 in 10.0 mi NNW 8.1 mph - N/A   Scattered Clouds
5:56 PM 39.9 °F 36.7 °F 28.9 °F 65% 29.65 in 10.0 mi ENE 4.6 mph - N/A   Clear
6:56 PM 39.0 °F 34.8 °F 25.0 °F 57% 29.65 in 10.0 mi South 5.8 mph - N/A   Clear
7:56 PM 36.0 °F 32.1 °F 25.0 °F 64% 29.68 in 10.0 mi SSW 4.6 mph - N/A   Partly Cloudy
8:56 PM 37.0 °F - 27.0 °F 67% 29.67 in 10.0 mi Calm Calm - N/A   Scattered Clouds
9:56 PM 35.1 °F 28.6 °F 25.0 °F 67% 29.69 in 10.0 mi SSE 8.1 mph - N/A   Scattered Clouds
10:56 PM 34.0 °F 28.0 °F 25.0 °F 70% 29.68 in 10.0 mi South 6.9 mph - N/A   Scattered Clouds
11:56 PM 33.1 °F - 25.0 °F 72% 29.68 in 10.0 mi Calm Calm - N/A   Overcast